Louisville Bowman, KY

12:46 AM EDT on March 30, 2017 (GMT -0400)
Bowman

Weather History for KLOU - January, 2006

Change the Weather History Date:

Tuesday, January 3, 2006

  Actual Average Record
Temperature  
Mean Temperature 46 °F 35 °F  
Max Temperature 48 °F 43 °F 71 °F (1997)
Min Temperature 44 °F 27 °F 5 °F (1979)
Degree Days  
Heating Degree Days 19 30  
Month to date heating degree days 90  
Since 1 July heating degree days 1754  
Cooling Degree Days 0 0  
Month to date cooling degree days 0  
Year to date cooling degree days 0  
Moisture  
Dew Point 42 °F    
Average Humidity 89    
Maximum Humidity 93    
Minimum Humidity 80    
Precipitation  
Precipitation 0.00 in 0.12 in 1.53 in (1951)
Month to date precipitation 0.39  
Year to date precipitation 0.39  
Sea Level Pressure  
Sea Level Pressure 29.94 in    
Wind  
Wind Speed 9 mph (WSW)    
Max Wind Speed 14 mph    
Max Gust Speed -    
Visibility 7 miles    
Events      
T = Trace of Precipitation, MM = Missing Value Source: NWS Daily Summary

Daily Weather History Graph

Daily Weather History Graph

Search for Another Location

Airport or City:

Trip Planner

Search our weather history database for the weather conditions in past years. The results will help you decide how hot, cold, wet, or windy it might be!

Date:

Astronomy

Jan. 03, 2006 Rise Set
Actual Time 7:59 AM EST 5:34 PM EST
Civil Twilight 7:30 AM EST 6:04 PM EST
Nautical Twilight 6:57 AM EST 6:37 PM EST
Astronomical Twilight 6:25 AM EST 7:09 PM EST
Moon 10:55 AM EST (1/3) 9:58 PM EST (1/3)
Length of Visible Light 10h 34m
Length of Day
9h 35m
Waxing Crescent, 17% of the Moon is Illuminated
Jan 3
Waxing Crescent
Jan 6
First Quarter
Jan 14
Full
Jan 22
Last Quarter
Jan 29
New

Hourly Weather History & Observations

Time (EST) Temp. Windchill Dew Point Humidity Pressure Visibility Wind Dir Wind Speed Gust Speed Precip Events Conditions
12:53 AM 48.0 °F - 42.1 °F 80% 29.72 in 10.0 mi West 12.7 mph - N/A   Overcast
1:53 AM 46.0 °F 39.9 °F 42.1 °F 86% 29.74 in 10.0 mi West 13.8 mph - 0.00 in   Overcast
2:26 AM 46.4 °F 41.9 °F 42.8 °F 87% 29.76 in 10.0 mi West 9.2 mph - N/A   Overcast
2:53 AM 46.0 °F 41.0 °F 41.0 °F 83% 29.78 in 10.0 mi WNW 10.4 mph - N/A   Overcast
3:53 AM 45.0 °F 40.1 °F 41.0 °F 86% 29.79 in 10.0 mi West 9.2 mph - N/A   Overcast
4:53 AM 45.0 °F 40.6 °F 41.0 °F 86% 29.82 in 10.0 mi West 8.1 mph - N/A   Overcast
5:53 AM 44.1 °F 39.0 °F 39.9 °F 85% 29.83 in 10.0 mi West 9.2 mph - N/A   Overcast
6:53 AM 44.1 °F 40.1 °F 41.0 °F 89% 29.86 in 10.0 mi West 6.9 mph - N/A   Overcast
7:05 AM 44.6 °F 40.2 °F 41.0 °F 87% 29.87 in 10.0 mi West 8.1 mph - N/A   Overcast
7:53 AM 44.1 °F 40.1 °F 41.0 °F 89% 29.88 in 10.0 mi West 6.9 mph - N/A   Overcast
8:53 AM 45.0 °F 40.1 °F 41.0 °F 86% 29.91 in 10.0 mi WNW 9.2 mph - N/A   Overcast
9:53 AM 45.0 °F 40.1 °F 42.1 °F 90% 29.94 in 9.0 mi WNW 9.2 mph - N/A   Overcast
10:42 AM 44.6 °F 40.2 °F 42.8 °F 93% 29.97 in 8.0 mi West 8.1 mph - N/A   Overcast
10:53 AM 45.0 °F 41.8 °F 42.1 °F 90% 29.98 in 7.0 mi WSW 5.8 mph - N/A   Overcast
11:53 AM 45.0 °F 40.6 °F 42.1 °F 90% 29.98 in 5.0 mi WSW 8.1 mph - N/A   Overcast
12:21 PM 44.6 °F 39.2 °F 42.8 °F 93% 29.98 in 2.0 mi West 10.4 mph - N/A   Overcast
12:53 PM 45.0 °F 40.1 °F 43.0 °F 93% 29.98 in 2.0 mi West 9.2 mph - N/A   Overcast
1:20 PM 44.6 °F 40.7 °F 42.8 °F 93% 29.97 in 3.0 mi WSW 6.9 mph - N/A   Overcast
1:53 PM 46.0 °F 43.9 °F 43.0 °F 89% 29.96 in 7.0 mi SW 4.6 mph - N/A   Overcast
2:53 PM 46.0 °F 42.5 °F 42.1 °F 86% 29.98 in 9.0 mi WSW 6.9 mph - N/A   Overcast
3:53 PM 45.0 °F 40.6 °F 43.0 °F 93% 30.00 in 2.0 mi WSW 8.1 mph - N/A   Overcast
4:18 PM 44.6 °F 39.7 °F 42.8 °F 93% 30.01 in 2.0 mi West 9.2 mph - N/A   Overcast
4:34 PM 44.6 °F 41.4 °F 42.8 °F 93% 30.01 in 2.0 mi SW 5.8 mph - N/A   Overcast
4:53 PM 45.0 °F 41.8 °F 43.0 °F 93% 30.02 in 2.0 mi WSW 5.8 mph - N/A   Overcast
5:53 PM 45.0 °F 41.2 °F 42.1 °F 90% 30.02 in 4.0 mi SSW 6.9 mph - N/A   Overcast
6:53 PM 45.0 °F 41.8 °F 42.1 °F 90% 30.03 in 7.0 mi SSW 5.8 mph - N/A   Overcast
7:53 PM 45.0 °F 40.1 °F 41.0 °F 86% 30.04 in 8.0 mi SW 9.2 mph - N/A   Overcast
8:53 PM 45.0 °F 41.2 °F 42.1 °F 90% 30.03 in 7.0 mi SSW 6.9 mph - N/A   Overcast
9:46 PM 44.6 °F 42.2 °F 42.8 °F 93% 30.02 in 6.0 mi South 4.6 mph - N/A   Overcast
9:53 PM 44.1 °F 41.5 °F 42.1 °F 93% 30.02 in 6.0 mi SSE 4.6 mph - N/A   Overcast
10:42 PM 44.6 °F 40.7 °F 42.8 °F 93% 30.00 in 5.0 mi South 6.9 mph - N/A   Overcast
10:53 PM 44.1 °F 40.8 °F 42.1 °F 93% 30.01 in 5.0 mi South 5.8 mph - N/A   Overcast
11:53 PM 45.0 °F 40.1 °F 42.1 °F 90% 29.99 in 6.0 mi South 9.2 mph - N/A   Overcast